Weather in Hotsky

Ukraine / Kyiv Region     49°54′21″N   31°38′47″E
В апреле 2022 года жителям России запретили посещать сайт meteo.paraplan.net по решению Генеральной прокуратуры. Аудитория сайта уменьшилась в 10 раз. Владельцы сайта не видят смысла в поддержке погодного сервера в таких условиях. Сайт будет закрыт в октябре.
temp.,
°C
wind,
m/s
gust,
m/s
humid.,
%
clouds,
%
prec.,
mm/h
press.,
hPa
HPBL,
m
3 october, mon
mon300:00+7wnw91489100 0.4 10011143
03:00+8w91486100 0.9 10011118
06:00+8w61190100 1.8 10011054
09:00+9w51290100 3.2 1001994
12:00+11w101579100 0.6 10021338
15:00+11wsw91380100 1.4 10031136
18:00+11wsw91474100 0.1 1004889
21:00+11sw81377100 0.1 1004855
4 october, tue
tue400:00+10sw81387100 0.6 1004782
03:00+8w71181100 3.0 1006841
06:00+9wsw71184100 0.1 10071103
09:00+9wsw71086100 0.8 10091172
12:00+9wsw71086100 0.7 10101025
15:00+9wsw81186100 1.1 10121077
18:00+9wsw61183100 0.4 1014663
21:00+10w61182100 0.8 1015789
5 october, wed
wed500:00+10w71288100 0.6 1016570
03:00+9w7118964 0.8 1017552
06:00+8w6119333 0.0 1019452
09:00+9wnw71088100 0.0 1021650
12:00+10wnw688097 0.1 1022941
15:00+11wnw5775100 0.1 1023956
18:00+11wnw3676100 0.0 1024313
21:00+10w2381100 0.0 102546
6 october, thu
thu600:00+10w3483100 0.0 102570
03:00+10wsw3485100 0.0 102578
06:00+10wsw3686100 0.0 1024118
09:00+11wsw4880100 0.0 1024243
12:00+16w586284 0.0 1024548
15:00+18wsw69529 0.0 1023970
18:00+15wsw466978 0.0 102386
21:00+13w41080100 0.0 1024185
7 october, fri
fri700:00+12wnw4990100 0.0 1025191
03:00+11nw4109537 0.0 1026237
06:00+10nw38965 0.0 1027207
09:00+11nnw47820 0.0 1028275
12:00+15nnw45590 0.0 1028753
15:00+16nnw45510 0.0 1027986
18:00+13nnw33660 0.0 102740
21:00+11n227342 0.0 102722